Home   Weather   Foochow   Past weeks

Flag for China Past Weather in Foochow, Fujian, China — Yesterday and Last 2 Weeks

82 °F

Scattered clouds.

Feels Like: 89 °F
Forecast: 71 / 90 °F
Wind: 6 mph from Southeast

Location: Fuzhou Airport

Current Time: Oct 27, 2016 at 2:58:16 PM

Latest Report: Oct 27, 2016 at 2:00 PM

Visibility: 4 mi

Pressure: 29.98 "Hg

Humidity: 79%

Dew Point: 75 °F

Location of FoochowLocation

Past Weather in Foochow — Graph


Foochow Temperature Yesterday

Maximum temperature yesterday: 86 °F (at 11:00 AM)
Minimum temperature yesterday: 73 °F (at 7:00 AM)
Average temperature yesterday: 79 °F

High & Low Weather Summary for the Past Weeks

High90 °F (Oct 21, 12:00 PM)100% (Oct 16, 2:00 PM)30.09 "Hg (Oct 16, 2:00 PM)
Low70 °F (Oct 13, 1:00 AM)58% (Oct 14, 12:00 PM)29.65 "Hg (Oct 21, 4:00 AM)
Average76 °F86%29.92 "Hg
* Reported Oct 12 1:00 PM — Oct 27 1:00 PM, Foochow, Weather by CustomWeather, © 2016

Note: Actual official high and low records may vary slightly from our data, if they occured in-between our weather recording intervals... More about our weather records


Foochow Weather History for the Previous 24 Hours

Scroll right to see more
Time TempWeatherWind HumidityBarometerVisibility
1:00 PM
Thu, Oct 27
84 °FClear.6 mph74%30.01 "Hg4 mi
12:00 PM86 °FScattered clouds.6 mph70%30.04 "Hg4 mi
11:00 AM84 °FScattered clouds.6 mph74%30.04 "Hg4 mi
10:00 AM86 °FPassing clouds.6 mph70%30.07 "Hg4 mi
9:00 AM84 °FFog.3 mph74%30.07 "Hg3 mi
8:00 AM79 °FFog.3 mph94%30.04 "Hg2 mi
7:00 AM75 °FFog.No wind100%30.04 "Hg1 mi
6:00 AM75 °FFog.1 mph100%30.01 "Hg1 mi
5:00 AM77 °FFog.1 mph94%29.98 "Hg2 mi
4:00 AM77 °FFog.1 mph94%29.98 "Hg2 mi
3:00 AM75 °FFog.1 mph100%29.98 "Hg2 mi
2:00 AM77 °FFog.No wind94%29.98 "Hg2 mi
1:00 AM77 °FFog.1 mph94%30.01 "Hg3 mi
12:00 AM77 °FPassing clouds.1 mph94%30.01 "Hg4 mi
11:00 PM
Wed, Oct 26
77 °FPassing clouds.1 mph94%30.01 "Hg4 mi
10:00 PM77 °FPassing clouds.1 mph94%30.01 "Hg4 mi
9:00 PM77 °FPassing clouds.1 mph94%30.01 "Hg4 mi
8:00 PM77 °FPassing clouds.3 mph94%30.01 "Hg4 mi
7:00 PM77 °FPassing clouds.3 mph94%30.01 "Hg5 mi
6:00 PM77 °FClear.1 mph94%29.98 "Hg5 mi
5:00 PM79 °FClear.6 mph89%29.98 "Hg5 mi
4:00 PM82 °FPassing clouds.6 mph79%29.95 "HgN/A
3:00 PM84 °FPassing clouds.6 mph70%29.95 "HgN/A
2:00 PM84 °FPassing clouds.6 mph74%29.95 "HgN/A
Weather by CustomWeather, © 2016

See weather overviewHow to use our weather pages